Regional Weather Roundup
Issued by NWS

Home | Current Version | Previous Version | Graphics & Text | Print | Product List | Glossary On
Versions: 1 2 3 4 5 6 7 8 9 10 11 12 13 14 15 16 17 18 19 20 21 22 23 24 25 26 27 28 29 30 31 32 33 34 35 36 37 38 39 40 41 42 43 44 45 46 47 48 49 50
190
ASUS43 KIND 150159
RWRIN

WEATHER ROUNDUP FOR INDIANA
NATIONAL WEATHER SERVICE INDIANAPOLIS IN
900 PM EST THU DEC 14 2017

NOTE: "FAIR" INDICATES FEW OR NO CLOUDS BELOW 12,000 FEET WITH NO
SIGNIFICANT WEATHER AND/OR OBSTRUCTIONS TO VISIBILITY.

* - STATION DOES NOT REPORT WEATHER SUCH AS PRECIPITATION OR FOG.

+ - STATION NOT QUALITY CONTROLLED BY THE NATIONAL WEATHER SERVICE.
    USE DATA WITH CAUTION...ESPECIALLY DEWPOINT AND RELATIVE
    HUMIDITY OBSERVATIONS.

INZ001>003-010>013-019-020-150300-
NORTHWEST INDIANA

CITY           SKY/WX    TMP DP  RH WIND       PRES   REMARKS
GARY /AIRPORT/ PTCLDY    21   9  58 W6        30.09S WCI  14
KNOX *+        PTCLDY    21  14  73 CALM      30.08S
LA PORTE +     CLEAR      8   6  89 CALM      30.07F
MICHIGAN CITY+ PTCLDY    21  16  79 S5        30.07F WCI  15
MONTICELLO +   CLOUDY    21  15  75 CALM      30.08S
RENSSELAER +   CLEAR     23  16  74 CALM      30.09S

$$

LMZ046-743>745-150300-
SOUTHERN LAKE MICHIGAN

STATION/POSITION TIME  TEMP    WIND        PRES    WAVE
                       AIR SEA DIR/SP/G            HT
                 (UTC) (F)     (DEG/KT/KT) (MB)    (FT)
BURNS HARBOR     0140   26     220/  7/ 11 1019.0S
MICHIGAN CITY    0130   25     190/  8/ 10   N/A

$$

INZ004-005-014>016-021>024-150300-
NORTH CENTRAL INDIANA

CITY           SKY/WX    TMP DP  RH WIND       PRES   REMARKS
ELKHART        PTCLDY    19  10  68 CALM      30.06S
GOSHEN         CLOUDY    17   8  67 S6        30.06S WCI   9
PERU/GRISSOM   CLOUDY    22  15  73 CALM      30.06S
ROCHESTER +    CLOUDY    27  18  69 S3        30.07S
SOUTH BEND     CLEAR     17  11  77 SW7       30.06F WCI   8
WARSAW +       CLOUDY    21  12  68 CALM      30.07S

$$

INZ006>009-017-018-025>027-150300-
NORTHEAST INDIANA

CITY           SKY/WX    TMP DP  RH WIND       PRES   REMARKS
AUBURN +       CLOUDY    19   9  63 CALM      30.07F
FORT WAYNE     CLOUDY    18  13  80 CALM      30.08S
KENDALLVILLE + FLURRIES  20  10  67 SW5       30.06S WCI  13

$$

INZ028-029-035-036-043>045-051>053-150300-
WEST CENTRAL INDIANA

CITY           SKY/WX    TMP DP  RH WIND       PRES   REMARKS
CRAWFORDSVL +  MOCLDY    21  13  72 MISG        N/A
GREENCASTLE +  CLOUDY    23   9  54 CALM      30.09R
LAFAYETTE      CLOUDY    25  16  68 CALM      30.09R
TERRE HAUTE    CLOUDY    28  18  66 CALM      30.10R

$$

INZ030>032-037>040-046>048-054>057-064-065-150300-
CENTRAL INDIANA

CITY           SKY/WX    TMP DP  RH WIND       PRES   REMARKS
COLUMBUS       CLEAR     25  14  63 CALM      30.10R
FRANKFORT +    CLOUDY    26  15  64 CALM      30.09R
GREENWOOD *+   CLOUDY   N/A N/A N/A CALM      30.09R
INDIANAPOLIS   CLOUDY    25  14  63 S5        30.08R WCI  19
-EAGLE CREEK   PTCLDY    26  12  55 S3        30.08R
KOKOMO +       CLOUDY    23  16  74 SE3       30.08S
MT COMFORT *+  PTCLDY    21  18  86 S3        30.08R
SHELBYVILLE    CLOUDY    24  15  68 CALM      30.08R
ZIONSVILLE +   CLOUDY    21  14  72 CALM      30.08R

$$

INZ033-034-041-042-049-050-058-059-150300-
EAST CENTRAL INDIANA

CITY           SKY/WX    TMP DP  RH WIND       PRES   REMARKS
MUNCIE         CLOUDY    23  13  65 SE3       30.07S
RICHMOND +     CLOUDY    19  18  93 CALM      30.06F

$$

INZ060-061-067>069-081>083-085>088-150300-
SOUTHWEST INDIANA

CITY           SKY/WX    TMP DP  RH WIND       PRES   REMARKS
EVANSVILLE     CLOUDY    32  22  66 W5        30.12R WCI  27
HUNTINGBURG +  CLOUDY    31  21  66 N3        30.10R

$$

INZ062-063-066-070>080-084-089>092-150300-
SOUTH CENTRAL AND SOUTHEAST INDIANA

CITY           SKY/WX    TMP DP  RH WIND       PRES   REMARKS
BLOOMINGTON    PTCLDY    27  14  58 CALM      30.08R
MADISON *+     CLEAR     27  18  69 NE3       30.09S
SEYMOUR +      CLOUDY    27  16  63 CALM      30.10R

$$





USA.gov is the U.S. government's official web portal to all federal, state and local government web resources and services.